[[{"header":{"parameterUnit":"m.s-1","parameterCategory":2,"la1":30.2991,"la2":30.254,"lo1":-89.0895,"lo2":-89.0444,"dy":0.0017,"dx":0.0017,"nx":28,"ny":28,"refTime":"2024-06-06T03:00:00:Z","depth":"0","parameterNumber":2,"parameterNumberName":"U-component_of_CURRENTS"},"data":[0,0,0,0,0,0,0,0,0,0,0,0,0,0,0,0,0,0,0,0,0,0,0,0,0,0,0,0,0,0,0,0,0,0,0,0,0,0,0,0,0,0,0,0,0,0,0,0,0,0,0,0,0,0,0,0,0,0,0.2221,0.2222,0,0.2321,0.2322,0.2323,0.2374,0.2374,0.2374,0.2374,0.2406,0.2407,0.2408,0,0,0,0,0,0,0,0,0,0,0,0,0,0.2094,0.2096,0.2221,0.2222,0.2223,0.232,0.2322,0.2323,0.2374,0.2374,0.2374,0.2374,0.2406,0.2407,0.2408,0,0,0,0,0,0,0,0,0,0,0,0,0,0.2168,0.2097,0.2221,0.226,0.2264,0.232,0.2322,0.2324,0.2374,0.2374,0.2374,0.2374,0.2405,0.2407,0.2408,0.2416,0,0,0.2412,0.2412,0,0,0,0,0,0,0,0,0.2164,0.2173,0.2253,0.2257,0.2262,0.2334,0.2289,0.2351,0.2374,0.2334,0.2374,0.2374,0.2375,0.2379,0.24,0.2418,0.2419,0.2412,0.2413,0.2413,0.2414,0,0,0,0,0,0,0,0.2158,0.2169,0.2261,0.2254,0.226,0.2279,0.229,0.2301,0.2353,0.2337,0.2341,0.2351,0.2377,0.2399,0.2401,0.2419,0.2412,0.2413,0.2414,0.2414,0.249,0.2492,0,0,0,0,0,0,0.2144,0.2164,0.2258,0.2264,0.2211,0.2281,0.2293,0.2312,0.2354,0.2361,0.2351,0.2353,0.2396,0.2399,0.2402,0.245,0.2413,0.2414,0.2415,0.2489,0.2491,0.2492,0,0,0,0,0,0,0.2141,0.2152,0.2254,0.2215,0.2229,0.2283,0.2304,0.2314,0.2339,0.2365,0.2371,0.2366,0.2397,0.24,0.2427,0.245,0.2415,0.2416,0.2488,0.249,0.2491,0.2522,0,0,0,0,0,0,0.2137,0.215,0.2157,0.2214,0.2231,0.2291,0.2305,0.2316,0.2345,0.2348,0.238,0.2383,0.2397,0.2425,0.2428,0.2451,0.2417,0.2486,0.2489,0.2491,0.2519,0.2524,0.2529,0,0,0,0,0,0.2132,0.2145,0.2157,0.2168,0.2239,0.2292,0.2302,0.234,0.2345,0.2362,0.2387,0.2382,0.2443,0.2427,0.2431,0.2454,0.2485,0.2488,0.2491,0.2517,0.2523,0.2529,0,0,0,0,0,0,0.21,0.2154,0.2167,0.2197,0.224,0.23,0.2318,0.234,0.2375,0.2377,0.2395,0.2401,0.2436,0.2439,0.2421,0.2484,0.2464,0.2468,0.2483,0.2489,0.2494,0.247,0.2418,0,0,0,0,0,0.2093,0.2115,0.217,0.2194,0.2213,0.2263,0.2287,0.2316,0.2355,0.2371,0.2392,0.2417,0.2451,0.2463,0.2488,0.2515,0.2535,0.2534,0.2539,0.2543,0.2527,0.2569,0.2576,0.2501,0.2501,0.2501,0,0,0.2085,0.2119,0.213,0.2188,0.2223,0.226,0.2278,0.232,0.2352,0.2366,0.2407,0.2433,0.2462,0.2504,0.2519,0.2508,0.2587,0.2546,0.2549,0.2531,0.2573,0.258,0.2586,0.2503,0.2503,0.2503,0,0,0.2086,0.2113,0.2132,0.2169,0.2223,0.2257,0.2267,0.2326,0.2353,0.2393,0.2421,0.2455,0.2495,0.2529,0.255,0.2591,0.2612,0.2606,0.261,0.2652,0.2658,0.2664,0.2748,0.276,0.2607,0.2607,0.2607,0,0.2074,0.2111,0.2146,0.218,0.221,0.2254,0.2287,0.2325,0.2385,0.241,0.2405,0.249,0.2506,0.2572,0.2588,0.2601,0.2641,0.2586,0.2658,0.2663,0.2668,0.2752,0.2765,0.2609,0.2609,0.2609,0.2608,0,0.2098,0.2126,0.2142,0.2198,0.2234,0.227,0.2325,0.2361,0.2388,0.2426,0.2486,0.252,0.2569,0.2588,0.2595,0.2653,0.268,0.2661,0.2639,0.2677,0.2764,0.2778,0.2612,0.2611,0.261,0.261,0,0,0.2086,0.2144,0.2153,0.2173,0.2246,0.2278,0.2334,0.2398,0.2438,0.2481,0.2531,0.2584,0.2601,0.2624,0.2652,0.2677,0.2759,0.2678,0.268,0.2756,0.2893,0.3055,0.3085,0.2755,0.2756,0.2757,0.2957,0,0.2097,0.2142,0.2179,0.2225,0.2252,0.2309,0.2358,0.242,0.247,0.2526,0.2569,0.2621,0.262,0.2647,0.2677,0.274,0.2787,0.2709,0.2848,0.2852,0.2986,0.3103,0.3059,0.3246,0.297,0.2973,0.2974,0,0.2117,0.2144,0.2179,0.2235,0.2254,0.2286,0.2372,0.2421,0.2512,0.2555,0.2616,0.2652,0.2725,0.2692,0.2826,0.2781,0.2832,0.2869,0.2877,0.3017,0.3038,0.3154,0.328,0.3191,0.2995,0.2993,0.2991,0,0.2092,0.2148,0.2167,0.2189,0.226,0.2287,0.233,0.2423,0.2487,0.257,0.2636,0.2709,0.2789,0.283,0.2949,0.288,0.3103,0.3019,0.3221,0.3234,0.3217,0.3228,0.3261,0.3093,0.3093,0.3092,0.3092,0,0.2095,0.2117,0.2149,0.2164,0.2202,0.2255,0.2319,0.2383,0.2486,0.2593,0.2643,0.2768,0.2823,0.2969,0.2998,0.3219,0.3166,0.3258,0.3305,0.3237,0.3247,0.3183,0.3124,0.31,0.3098,0.3097,0.3095,0,0.2074,0.2097,0.2121,0.2169,0.2189,0.2213,0.2317,0.2383,0.248,0.2625,0.266,0.2849,0.3073,0.3177,0.3314,0.3356,0.3422,0.3559,0.3516,0.3555,0.3625,0.3571,0.3517,0.341,0.3785,0.379,0.3795,0,0.2068,0.2072,0.211,0.2132,0.2153,0.2202,0.2264,0.2367,0.2465,0.2709,0.28,0.3054,0.3271,0.3589,0.3716,0.3877,0.3667,0.3903,0.3745,0.3674,0.3644,0.3408,0.3298,0.3742,0.3746,0.3749,0.3751,0,0.2054,0.2059,0.208,0.212,0.2167,0.2229,0.2326,0.2401,0.2572,0.273,0.3003,0.318,0.3566,0.3772,0.4024,0.4081,0.3743,0.3976,0.3873,0.3619,0.3385,0.3291,0.3591,0.3778,0.3775,0.3773,0.3772,0.3771,0.2044,0.2053,0.2079,0.2127,0.2181,0.2261,0.2317,0.2464,0.2633,0.2884,0.3093,0.3362,0.3691,0.4071,0.4112,0.4174,0.4024,0.4051,0.4,0.3772,0.3631,0.4052,0.4312,0.4313,0.4313,0.4313,0.4314,0,0.205,0.2072,0.2099,0.2155,0.2215,0.2248,0.2379,0.2452,0.2657,0.2915,0.3165,0.3534,0.3791,0.398,0.4226,0.4173,0.3867,0.4065,0.3642,0.3535,0.391,0.3872,0.4084,0.4084,0.4084,0.4084,0.4084,0.4084,0.2052,0.2085,0.2106,0.2187,0.223,0.2295,0.2364,0.2487,0.2651,0.2938,0.3159,0.3365,0.3729,0.4096,0.4147,0.4063,0.369,0.3633,0.3517,0.3734,0.3722,0.371,0.3657,0.382,0.382,0.2966,0.296,0.2955]},{"header":{"parameterUnit":"m.s-1","parameterCategory":2,"la1":30.2991,"la2":30.254,"lo1":-89.0895,"lo2":-89.0444,"dy":0.0017,"dx":0.0017,"nx":28,"ny":28,"refTime":"2024-06-06T03:00:00:Z","depth":"0","parameterNumber":3,"parameterNumberName":"V-component_of_CURRENTS"},"data":[0,0,0,0,0,0,0,0,0,0,0,0,0,0,0,0,0,0,0,0,0,0,0,0,0,0,0,0,0,0,0,0,0,0,0,0,0,0,0,0,0,0,0,0,0,0,0,0,0,0,0,0,0,0,0,0,0,0,-0.0187,-0.0188,0,-0.0306,-0.0307,-0.0309,-0.0359,-0.0359,-0.0359,-0.0359,-0.0395,-0.0396,-0.0398,0,0,0,0,0,0,0,0,0,0,0,0,0,-0.0034,-0.0036,-0.0186,-0.0188,-0.0189,-0.0306,-0.0307,-0.0309,-0.0359,-0.0359,-0.0359,-0.0359,-0.0395,-0.0396,-0.0398,0,0,0,0,0,0,0,0,0,0,0,0,0,-0.0121,-0.0037,-0.0186,-0.0229,-0.0234,-0.0305,-0.0307,-0.0309,-0.0359,-0.0359,-0.0359,-0.0358,-0.0394,-0.0396,-0.0398,-0.0414,0,0,-0.0403,-0.0404,0,0,0,0,0,0,0,0,-0.0116,-0.0126,-0.0221,-0.0226,-0.0232,-0.0318,-0.0267,-0.034,-0.0359,-0.0311,-0.0359,-0.0358,-0.0362,-0.0367,-0.039,-0.0416,-0.0417,-0.0403,-0.0404,-0.0405,-0.0406,0,0,0,0,0,0,0,-0.0109,-0.0121,-0.0233,-0.0223,-0.0229,-0.0253,-0.0265,-0.0282,-0.0335,-0.0315,-0.032,-0.0334,-0.0364,-0.0389,-0.0391,-0.0418,-0.0403,-0.0405,-0.0406,-0.0406,-0.0515,-0.0517,0,0,0,0,0,0,-0.0095,-0.0116,-0.023,-0.0237,-0.0172,-0.0256,-0.0269,-0.029,-0.0337,-0.0344,-0.0334,-0.0335,-0.0386,-0.0389,-0.0392,-0.0453,-0.0405,-0.0407,-0.0408,-0.0514,-0.0516,-0.0518,0,0,0,0,0,0,-0.0091,-0.0104,-0.0225,-0.0179,-0.0196,-0.0259,-0.0282,-0.0293,-0.0319,-0.0352,-0.0357,-0.0348,-0.0386,-0.039,-0.0429,-0.0452,-0.0407,-0.0409,-0.0511,-0.0514,-0.0517,-0.0547,0,0,0,0,0,0,-0.0086,-0.0102,-0.0109,-0.0178,-0.0198,-0.0271,-0.0283,-0.0295,-0.0328,-0.0331,-0.0366,-0.037,-0.0386,-0.0426,-0.043,-0.0454,-0.041,-0.0509,-0.0513,-0.0516,-0.0544,-0.0551,-0.0557,0,0,0,0,0,-0.008,-0.0098,-0.0109,-0.0123,-0.0207,-0.0272,-0.0285,-0.0327,-0.0328,-0.0347,-0.0379,-0.0368,-0.0451,-0.0429,-0.0433,-0.0458,-0.0507,-0.0512,-0.0516,-0.0541,-0.055,-0.0557,0,0,0,0,0,0,-0.004,-0.0107,-0.012,-0.0158,-0.0209,-0.0281,-0.0303,-0.0326,-0.0368,-0.0367,-0.039,-0.0397,-0.0445,-0.0448,-0.0423,-0.0503,-0.0478,-0.0484,-0.0496,-0.0504,-0.051,-0.0495,-0.0412,0,0,0,0,0,-0.0032,-0.0062,-0.0127,-0.0157,-0.0181,-0.0238,-0.0266,-0.0297,-0.0344,-0.0363,-0.0392,-0.0425,-0.0467,-0.048,-0.0516,-0.0549,-0.055,-0.0571,-0.0577,-0.0582,-0.0575,-0.0626,-0.0636,-0.0532,-0.0532,-0.0532,0,0,-0.0024,-0.0065,-0.0082,-0.015,-0.0191,-0.0237,-0.0255,-0.0303,-0.0341,-0.0357,-0.0413,-0.0448,-0.0483,-0.0537,-0.0557,-0.0539,-0.061,-0.0587,-0.0591,-0.0581,-0.0631,-0.0641,-0.065,-0.0535,-0.0534,-0.0534,0,0,-0.0031,-0.0061,-0.0089,-0.0131,-0.0194,-0.0235,-0.0246,-0.0318,-0.0348,-0.0403,-0.0436,-0.0485,-0.0535,-0.0579,-0.0602,-0.0661,-0.0648,-0.0672,-0.0683,-0.0734,-0.0742,-0.0749,-0.0747,-0.0754,-0.0668,-0.0668,-0.0669,0,-0.0017,-0.0063,-0.0107,-0.0148,-0.0178,-0.0231,-0.0266,-0.0315,-0.0392,-0.0414,-0.0421,-0.0527,-0.0558,-0.0628,-0.066,-0.0673,-0.0682,-0.0648,-0.074,-0.0748,-0.0755,-0.0751,-0.0758,-0.067,-0.067,-0.067,-0.067,0,-0.0051,-0.0083,-0.0105,-0.0171,-0.0211,-0.025,-0.0317,-0.0356,-0.039,-0.0437,-0.051,-0.057,-0.0622,-0.0656,-0.0676,-0.075,-0.0732,-0.0746,-0.0714,-0.0767,-0.076,-0.0767,-0.0673,-0.0673,-0.0672,-0.0672,0,0,-0.0027,-0.011,-0.0116,-0.0135,-0.022,-0.0252,-0.0315,-0.0381,-0.04,-0.0487,-0.0518,-0.0628,-0.0651,-0.068,-0.0721,-0.0774,-0.0835,-0.078,-0.0782,-0.0765,-0.0912,-0.0818,-0.0816,-0.087,-0.0872,-0.0874,-0.088,0,-0.0036,-0.0091,-0.0139,-0.0186,-0.0215,-0.0272,-0.0316,-0.038,-0.0429,-0.0473,-0.0555,-0.0599,-0.0664,-0.0675,-0.0753,-0.0803,-0.0859,-0.083,-0.0875,-0.0875,-0.0775,-0.0823,-0.0738,-0.073,-0.0887,-0.0888,-0.0889,0,-0.0051,-0.0084,-0.0123,-0.0171,-0.0187,-0.0219,-0.0269,-0.0315,-0.0396,-0.0424,-0.0501,-0.0555,-0.0645,-0.0683,-0.0819,-0.0796,-0.0862,-0.091,-0.0911,-0.0815,-0.0794,-0.0709,-0.0737,-0.0975,-0.0899,-0.0898,-0.0898,0,-0.0,-0.0067,-0.0086,-0.0109,-0.0179,-0.0191,-0.0223,-0.0295,-0.0298,-0.038,-0.0361,-0.0514,-0.0516,-0.067,-0.0763,-0.08,-0.088,-0.0938,-0.092,-0.0911,-0.0841,-0.0823,-0.1091,-0.1049,-0.1049,-0.1049,-0.1049,0,0.0012,-0.0002,-0.0055,-0.0065,-0.0062,-0.0133,-0.0127,-0.0174,-0.0206,-0.016,-0.0315,-0.027,-0.0513,-0.058,-0.0732,-0.0809,-0.0855,-0.0918,-0.0917,-0.0846,-0.0829,-0.1031,-0.1153,-0.1049,-0.1049,-0.1049,-0.1049,0,0.0065,0.0023,0.0013,-0.0034,-0.0036,-0.0029,-0.0029,-0.001,-0.0052,0.0015,0.0011,-0.0076,-0.0137,-0.0357,-0.0544,-0.0694,-0.0917,-0.0846,-0.0714,-0.0697,-0.0921,-0.1043,-0.1224,-0.1332,-0.0853,-0.0851,-0.0849,0,0.0082,0.0081,0.0067,0.0093,0.008,0.0089,0.0121,0.0078,0.0134,0.0184,0.0259,0.0207,0.0255,0.001,-0.0279,-0.0523,-0.0782,-0.0641,-0.072,-0.0921,-0.1059,-0.1155,-0.1243,-0.0638,-0.0635,-0.0632,-0.063,0,0.0132,0.0134,0.0138,0.0199,0.0241,0.0288,0.0343,0.042,0.0436,0.055,0.0728,0.0772,0.0558,0.0367,-0.0011,-0.0205,-0.0777,-0.0588,-0.0862,-0.0963,-0.102,-0.1123,-0.0622,-0.0605,-0.0607,-0.0609,-0.0611,-0.0612,0.0189,0.0222,0.0254,0.0325,0.0389,0.0515,0.0629,0.0746,0.0926,0.1183,0.1157,0.135,0.0927,0.0456,0.0107,-0.0503,-0.0561,-0.071,-0.085,-0.0937,-0.1031,-0.0437,-0.0379,-0.038,-0.0381,-0.0382,-0.0383,0,0.0279,0.0321,0.0384,0.0498,0.0636,0.0624,0.0812,0.0993,0.1319,0.1557,0.1781,0.173,0.1226,0.0601,-0.0228,-0.0699,-0.0933,-0.099,-0.1177,-0.1267,-0.0791,-0.0775,-0.0718,-0.0718,-0.0718,-0.0718,-0.0718,-0.0717,0.033,0.0424,0.0467,0.0713,0.0815,0.1052,0.1199,0.1485,0.1714,0.2122,0.2297,0.2347,0.1832,0.0268,-0.0845,-0.1117,-0.152,-0.1527,-0.1794,-0.1541,-0.1529,-0.1518,-0.1539,-0.1643,-0.1644,-0.2206,-0.2212,-0.2216]}],[{"header":{"parameterUnit":"m.s-1","parameterCategory":2,"la1":30.2991,"la2":30.254,"lo1":-89.0895,"lo2":-89.0444,"dy":0.0017,"dx":0.0017,"nx":28,"ny":28,"refTime":"2024-06-06T03:00:00:Z","depth":"2","parameterNumber":2,"parameterNumberName":"U-component_of_CURRENTS"},"data":[0,0,0,0,0,0,0,0,0,0,0,0,0,0,0,0,0,0,0,0,0,0,0,0,0,0,0,0,0,0,0,0,0,0,0,0,0,0,0,0,0,0,0,0,0,0,0,0,0,0,0,0,0,0,0,0,0,0,0.2067,0.2068,0,0.2114,0.2114,0.2114,0.2098,0.2097,0.2097,0.2096,0.2132,0.2133,0.2135,0,0,0,0,0,0,0,0,0,0,0,0,0,0.2047,0.2046,0.2067,0.2068,0.2069,0.2114,0.2114,0.2114,0.2098,0.2097,0.2096,0.2096,0.2131,0.2133,0.2135,0,0,0,0,0,0,0,0,0,0,0,0,0,0.2065,0.2046,0.2067,0.2071,0.2072,0.2114,0.2114,0.2114,0.2098,0.2097,0.2096,0.2096,0.2131,0.2133,0.2135,0.2164,0,0,0.2141,0.2142,0,0,0,0,0,0,0,0,0.2064,0.2065,0.2069,0.207,0.2072,0.2104,0.212,0.2132,0.2098,0.2082,0.2096,0.2095,0.2126,0.2128,0.2131,0.2165,0.2167,0.2142,0.2143,0.2144,0.2144,0,0,0,0,0,0,0,0.2062,0.2063,0.208,0.207,0.2072,0.2099,0.2099,0.2122,0.2103,0.2083,0.2084,0.2098,0.2126,0.2129,0.2132,0.2167,0.2142,0.2144,0.2145,0.2146,0.2256,0.2257,0,0,0,0,0,0,0.2064,0.2062,0.2078,0.2082,0.2072,0.21,0.21,0.209,0.2103,0.2106,0.2099,0.2097,0.2125,0.2129,0.2133,0.222,0.2144,0.2146,0.2147,0.2254,0.2256,0.2258,0,0,0,0,0,0,0.2063,0.2064,0.2076,0.2079,0.2083,0.2101,0.209,0.2091,0.2111,0.2116,0.2117,0.212,0.2125,0.213,0.2172,0.222,0.2147,0.2149,0.2252,0.2255,0.2257,0.2362,0,0,0,0,0,0,0.2062,0.2063,0.2072,0.2078,0.2083,0.2114,0.2091,0.2093,0.2123,0.2122,0.2135,0.2136,0.2125,0.2169,0.2174,0.2221,0.215,0.225,0.2253,0.2256,0.2356,0.2368,0.2377,0,0,0,0,0,0.2061,0.2069,0.2071,0.2075,0.2088,0.2116,0.2121,0.2128,0.2125,0.2141,0.2153,0.2136,0.2192,0.2173,0.2178,0.2227,0.2249,0.2253,0.2256,0.2352,0.2365,0.2377,0,0,0,0,0,0,0.2053,0.2069,0.2071,0.208,0.2106,0.2116,0.2138,0.2145,0.2167,0.2174,0.2164,0.2167,0.2219,0.2208,0.2187,0.2265,0.2216,0.2221,0.2286,0.2299,0.231,0.2301,0.2152,0,0,0,0,0,0.206,0.2082,0.2092,0.2109,0.2117,0.2134,0.2153,0.2164,0.2181,0.219,0.2198,0.2212,0.2237,0.2256,0.2269,0.2321,0.2326,0.2352,0.2362,0.2371,0.2368,0.2417,0.2432,0.227,0.227,0.227,0,0,0.206,0.2081,0.2089,0.2114,0.2128,0.2169,0.2141,0.2181,0.2226,0.2193,0.2251,0.2252,0.2258,0.231,0.2332,0.231,0.2427,0.2376,0.2384,0.2375,0.2423,0.2439,0.2453,0.2273,0.2272,0.2272,0,0,0.2083,0.2089,0.2113,0.2148,0.2195,0.2213,0.2231,0.2254,0.2269,0.2328,0.2314,0.2345,0.2382,0.2395,0.2407,0.2485,0.2478,0.2489,0.2545,0.2594,0.2608,0.262,0.268,0.2696,0.2499,0.2499,0.2499,0,0.2093,0.2122,0.2129,0.2176,0.2218,0.2237,0.2284,0.2313,0.2355,0.2375,0.236,0.242,0.2425,0.249,0.2509,0.2512,0.2535,0.2501,0.261,0.2621,0.2632,0.269,0.2706,0.2504,0.2504,0.2503,0.2503,0,0.2132,0.2176,0.2198,0.2267,0.2307,0.2359,0.2399,0.2437,0.2462,0.2489,0.2547,0.255,0.2577,0.2593,0.2576,0.2655,0.2649,0.2617,0.258,0.2655,0.2711,0.2727,0.2512,0.251,0.2509,0.2507,0,0,0.2126,0.2206,0.2228,0.2262,0.2366,0.2389,0.2478,0.2542,0.2577,0.263,0.2676,0.2724,0.2709,0.2718,0.2706,0.2746,0.2852,0.2714,0.2715,0.2778,0.2977,0.294,0.2953,0.2842,0.2844,0.2846,0.2999,0,0.2169,0.225,0.2297,0.2393,0.2429,0.2491,0.2557,0.2625,0.2666,0.2714,0.2748,0.2779,0.2765,0.2762,0.2815,0.2825,0.2892,0.2814,0.2889,0.2892,0.2853,0.2969,0.2754,0.2868,0.3014,0.3016,0.3018,0,0.2206,0.226,0.2335,0.2427,0.2447,0.2503,0.259,0.2654,0.2741,0.2768,0.2828,0.2839,0.2914,0.2869,0.2986,0.2937,0.2971,0.2986,0.2992,0.2923,0.2882,0.2809,0.289,0.3044,0.3042,0.304,0.3038,0,0.2178,0.2294,0.2344,0.2385,0.2486,0.2516,0.2572,0.2659,0.2704,0.2785,0.2832,0.2914,0.2953,0.3014,0.3083,0.3029,0.3213,0.3139,0.3154,0.3153,0.2965,0.2942,0.3236,0.3236,0.3235,0.3235,0.3234,0,0.2208,0.225,0.232,0.2348,0.2397,0.2478,0.2527,0.259,0.2685,0.2764,0.284,0.2925,0.2987,0.3104,0.3138,0.3228,0.3277,0.3191,0.3197,0.2999,0.2978,0.3104,0.3086,0.3241,0.3239,0.3238,0.3237,0,0.2156,0.2217,0.226,0.2349,0.2372,0.2394,0.2489,0.2531,0.2635,0.2742,0.2775,0.2949,0.3102,0.3199,0.3313,0.3298,0.3372,0.3395,0.3171,0.3146,0.3257,0.3243,0.3391,0.3391,0.3391,0.3391,0.3391,0,0.2127,0.2145,0.2221,0.224,0.227,0.2318,0.2362,0.2476,0.2545,0.2775,0.2843,0.3027,0.3137,0.3326,0.3363,0.344,0.3469,0.3251,0.3088,0.3287,0.3277,0.3263,0.325,0.2899,0.2895,0.2892,0.2889,0,0.2065,0.2085,0.2116,0.216,0.2196,0.2248,0.233,0.2373,0.2548,0.2626,0.2797,0.2891,0.3137,0.3126,0.3256,0.3261,0.3205,0.3184,0.3482,0.2885,0.2833,0.282,0.2821,0.286,0.2863,0.2865,0.2867,0.2868,0.1995,0.1997,0.2042,0.208,0.2126,0.2182,0.2179,0.2282,0.2348,0.2485,0.2674,0.2764,0.2887,0.2962,0.2942,0.2945,0.3122,0.2961,0.2967,0.2977,0.2885,0.2835,0.2847,0.285,0.2852,0.2854,0.2856,0,0.1913,0.1943,0.1971,0.2017,0.2022,0.2105,0.2166,0.2138,0.2154,0.2359,0.2443,0.2349,0.2423,0.2572,0.2539,0.2546,0.2468,0.2438,0.2316,0.2351,0.238,0.2251,0.2048,0.2045,0.2042,0.2039,0,0,0.1868,0.187,0.1903,0.1906,0.1944,0.1933,0.1936,0.19,0.1982,0.1982,0.2056,0.2334,0.2508,0.2234,0.2233,0.214,0.2209,0.2062,0.2728,0.2622,0.2646,0.2724,0.2572,0,0,0,0,0]},{"header":{"parameterUnit":"m.s-1","parameterCategory":2,"la1":30.2991,"la2":30.254,"lo1":-89.0895,"lo2":-89.0444,"dy":0.0017,"dx":0.0017,"nx":28,"ny":28,"refTime":"2024-06-06T03:00:00:Z","depth":"2","parameterNumber":3,"parameterNumberName":"V-component_of_CURRENTS"},"data":[0,0,0,0,0,0,0,0,0,0,0,0,0,0,0,0,0,0,0,0,0,0,0,0,0,0,0,0,0,0,0,0,0,0,0,0,0,0,0,0,0,0,0,0,0,0,0,0,0,0,0,0,0,0,0,0,0,0,-0.0151,-0.0152,0,-0.0274,-0.0275,-0.0277,-0.0355,-0.0355,-0.0356,-0.0356,-0.0535,-0.054,-0.0544,0,0,0,0,0,0,0,0,0,0,0,0,0,-0.0148,-0.0147,-0.0151,-0.0153,-0.0154,-0.0274,-0.0276,-0.0277,-0.0355,-0.0355,-0.0356,-0.0356,-0.0534,-0.0539,-0.0545,0,0,0,0,0,0,0,0,0,0,0,0,0,-0.0199,-0.0146,-0.0151,-0.0206,-0.0212,-0.0273,-0.0276,-0.0278,-0.0355,-0.0355,-0.0356,-0.0356,-0.0532,-0.0539,-0.0545,-0.0577,0,0,-0.0566,-0.0569,0,0,0,0,0,0,0,0,-0.0196,-0.0199,-0.0197,-0.0202,-0.0209,-0.0298,-0.034,-0.038,-0.0355,-0.0302,-0.0356,-0.0356,-0.046,-0.0473,-0.0496,-0.0585,-0.0593,-0.0567,-0.0571,-0.0573,-0.0575,0,0,0,0,0,0,0,-0.0192,-0.0195,-0.0201,-0.0198,-0.0206,-0.0281,-0.0287,-0.0349,-0.0379,-0.0307,-0.0312,-0.0324,-0.0464,-0.0489,-0.0501,-0.0596,-0.0566,-0.0572,-0.0576,-0.0579,-0.0744,-0.0745,0,0,0,0,0,0,-0.0164,-0.019,-0.0197,-0.0205,-0.0202,-0.028,-0.0287,-0.027,-0.0377,-0.0393,-0.0323,-0.0327,-0.0478,-0.0493,-0.0508,-0.0585,-0.0573,-0.058,-0.0584,-0.0744,-0.0744,-0.0745,0,0,0,0,0,0,-0.0163,-0.0162,-0.0192,-0.0202,-0.021,-0.0278,-0.026,-0.0273,-0.0306,-0.0389,-0.0406,-0.0344,-0.0479,-0.0498,-0.058,-0.0591,-0.0583,-0.0589,-0.0744,-0.0744,-0.0745,-0.0717,0,0,0,0,0,0,-0.0162,-0.0161,-0.015,-0.0198,-0.0209,-0.022,-0.0259,-0.0275,-0.0311,-0.0318,-0.0413,-0.0429,-0.048,-0.0569,-0.0586,-0.06,-0.0594,-0.0743,-0.0744,-0.0745,-0.0718,-0.0717,-0.0716,0,0,0,0,0,-0.0161,-0.0134,-0.0148,-0.015,-0.0186,-0.022,-0.0232,-0.0285,-0.0312,-0.0319,-0.0399,-0.0427,-0.0585,-0.0576,-0.0596,-0.0611,-0.0743,-0.0744,-0.0744,-0.0718,-0.0717,-0.0716,0,0,0,0,0,0,-0.0124,-0.0141,-0.0157,-0.0135,-0.0173,-0.0232,-0.0245,-0.0285,-0.0352,-0.0372,-0.0446,-0.0469,-0.0542,-0.0578,-0.0566,-0.0658,-0.0663,-0.0667,-0.0636,-0.0635,-0.0635,-0.0592,-0.06,0,0,0,0,0,-0.0108,-0.0098,-0.0131,-0.012,-0.0129,-0.019,-0.0214,-0.0255,-0.0317,-0.0348,-0.0415,-0.0489,-0.0558,-0.0598,-0.066,-0.0718,-0.0731,-0.0735,-0.0734,-0.0733,-0.0711,-0.0763,-0.0764,-0.0748,-0.0748,-0.0748,0,0,-0.009,-0.0103,-0.0096,-0.0113,-0.0145,-0.0167,-0.0206,-0.0242,-0.0277,-0.0358,-0.0427,-0.0495,-0.0574,-0.0641,-0.0674,-0.0675,-0.0742,-0.0734,-0.0733,-0.0711,-0.0764,-0.0765,-0.0767,-0.0748,-0.0748,-0.0748,0,0,-0.0052,-0.0057,-0.0036,-0.0069,-0.0116,-0.0158,-0.0164,-0.0229,-0.0268,-0.0348,-0.0411,-0.0476,-0.0589,-0.0635,-0.0677,-0.0705,-0.0738,-0.0731,-0.0696,-0.0748,-0.0749,-0.0751,-0.0753,-0.0755,-0.0728,-0.0728,-0.0728,0,-0.004,-0.0017,-0.004,-0.0045,-0.0074,-0.0147,-0.0153,-0.0207,-0.0299,-0.0323,-0.0366,-0.0511,-0.0581,-0.0645,-0.0661,-0.0702,-0.0725,-0.0697,-0.0746,-0.0748,-0.075,-0.0752,-0.0755,-0.0727,-0.0727,-0.0727,-0.0727,0,0.0008,0.0006,0.0012,-0.0017,-0.0044,-0.0073,-0.0137,-0.0176,-0.0245,-0.0302,-0.0383,-0.0482,-0.0557,-0.0595,-0.065,-0.0693,-0.0702,-0.0742,-0.0745,-0.075,-0.0752,-0.0755,-0.0725,-0.0725,-0.0726,-0.0726,0,0,0.005,0.005,0.0035,0.0036,-0.0041,-0.0054,-0.0102,-0.0154,-0.0168,-0.0283,-0.0307,-0.0441,-0.0486,-0.0533,-0.0601,-0.0649,-0.0691,-0.0701,-0.0705,-0.0695,-0.0779,-0.072,-0.0718,-0.0757,-0.0758,-0.0758,-0.0768,0,0.0073,0.0093,0.0071,0.0056,0.0061,-0.001,-0.0036,-0.0098,-0.0165,-0.0208,-0.0315,-0.0377,-0.0468,-0.0502,-0.057,-0.0659,-0.0702,-0.0682,-0.0782,-0.0783,-0.0725,-0.072,-0.0697,-0.0699,-0.0771,-0.0772,-0.0772,0,0.01,0.0108,0.0123,0.0118,0.0116,0.0089,0.0051,0.0014,-0.0062,-0.0109,-0.0192,-0.0272,-0.036,-0.0439,-0.0585,-0.0576,-0.067,-0.0739,-0.0742,-0.0693,-0.073,-0.0711,-0.0703,-0.0778,-0.0777,-0.0777,-0.0776,0,0.0133,0.0131,0.0151,0.0135,0.0122,0.0118,0.0093,0.0039,0.004,-0.0047,-0.0046,-0.0184,-0.0233,-0.0384,-0.0532,-0.0572,-0.0672,-0.0745,-0.077,-0.0766,-0.0763,-0.0756,-0.0841,-0.0841,-0.0841,-0.0841,-0.0841,0,0.0152,0.0158,0.0169,0.0171,0.02,0.0165,0.0184,0.0147,0.0123,0.0159,0.0007,0.0026,-0.0229,-0.0317,-0.0482,-0.0608,-0.0637,-0.0741,-0.0766,-0.0749,-0.0742,-0.0829,-0.0828,-0.0841,-0.0841,-0.0841,-0.0841,0,0.0179,0.0181,0.0211,0.0215,0.022,0.0231,0.0254,0.0282,0.0244,0.0291,0.0275,0.0174,0.0075,-0.0138,-0.0349,-0.0506,-0.0652,-0.0692,-0.0623,-0.0639,-0.0724,-0.0721,-0.0726,-0.0724,-0.0722,-0.0721,-0.072,0,0.0205,0.0222,0.0248,0.0277,0.0276,0.03,0.0336,0.0325,0.0379,0.0416,0.0465,0.0385,0.0364,0.0091,-0.0208,-0.0459,-0.0534,-0.0595,-0.0672,-0.0689,-0.0714,-0.0714,-0.0713,-0.0658,-0.0656,-0.0655,-0.0654,0,0.0249,0.0247,0.0274,0.0337,0.0377,0.0447,0.0503,0.0581,0.0612,0.068,0.0783,0.0773,0.0517,0.0262,-0.0098,-0.0277,-0.0561,-0.0573,-0.0628,-0.0676,-0.0622,-0.0647,-0.065,-0.0643,-0.0644,-0.0645,-0.0645,-0.0646,0.0275,0.0305,0.0342,0.0404,0.0469,0.0591,0.068,0.0777,0.091,0.103,0.1027,0.1024,0.0688,0.0253,-0.0067,-0.0418,-0.0429,-0.0576,-0.0582,-0.0589,-0.0565,-0.051,-0.0502,-0.0502,-0.0502,-0.0503,-0.0503,0,0.0316,0.035,0.0415,0.0503,0.0608,0.0626,0.08,0.0903,0.1091,0.1195,0.1271,0.1024,0.0729,0.0367,-0.015,-0.0461,-0.0536,-0.0539,-0.0588,-0.0596,-0.0603,-0.0584,-0.0525,-0.0526,-0.0527,-0.0527,0,0,0.0339,0.0404,0.0443,0.0611,0.0688,0.0844,0.0965,0.1111,0.1224,0.1345,0.1359,0.1292,0.0857,0.0487,0.0053,-0.0234,-0.0342,-0.0284,-0.0233,-0.0247,-0.0251,-0.0589,-0.0561,0,0,0,0,0]}],[{"header":{"parameterUnit":"m.s-1","parameterCategory":2,"la1":30.2991,"la2":30.254,"lo1":-89.0895,"lo2":-89.0444,"dy":0.0017,"dx":0.0017,"nx":28,"ny":28,"refTime":"2024-06-06T03:00:00:Z","depth":"4","parameterNumber":2,"parameterNumberName":"U-component_of_CURRENTS"},"data":[0,0,0,0,0,0,0,0,0,0,0,0,0,0,0,0,0,0,0,0,0,0,0,0,0,0,0,0,0,0,0,0,0,0,0,0,0,0,0,0,0,0,0,0,0,0,0,0,0,0,0,0,0,0,0,0,0,0,0.1203,0.1204,0,0.1221,0.1221,0.1221,0.1246,0.1246,0.1247,0.1248,0.1266,0.1265,0.1265,0,0,0,0,0,0,0,0,0,0,0,0,0,0.115,0.1151,0.1203,0.1204,0.1204,0.1221,0.1221,0.1221,0.1246,0.1246,0.1247,0.1248,0.1266,0.1265,0.1265,0,0,0,0,0,0,0,0,0,0,0,0,0,0.1169,0.1151,0.1203,0.122,0.1222,0.1221,0.1221,0.1221,0.1246,0.1246,0.1247,0.1248,0.1266,0.1265,0.1265,0.1246,0,0,0.1265,0.1265,0,0,0,0,0,0,0,0,0.1168,0.1171,0.1217,0.1219,0.1221,0.1234,0.1209,0.123,0.1245,0.1234,0.1248,0.1249,0.1256,0.1257,0.1255,0.1247,0.1247,0.1265,0.1265,0.1265,0.1265,0,0,0,0,0,0,0,0.1167,0.117,0.1208,0.1218,0.122,0.1213,0.1217,0.1213,0.1238,0.1235,0.1238,0.1243,0.1257,0.1255,0.1255,0.1248,0.1265,0.1265,0.1265,0.1265,0.1331,0.1333,0,0,0,0,0,0,0.117,0.1169,0.1208,0.1209,0.1199,0.1214,0.1218,0.1227,0.1238,0.1241,0.1242,0.1244,0.1254,0.1255,0.1256,0.1327,0.1265,0.1264,0.1264,0.1329,0.1331,0.1333,0,0,0,0,0,0,0.1169,0.1174,0.1207,0.1191,0.1195,0.1214,0.1224,0.1227,0.1254,0.1244,0.1247,0.127,0.1255,0.1256,0.1279,0.1325,0.1264,0.1264,0.1327,0.133,0.1332,0.1409,0,0,0,0,0,0,0.1167,0.1173,0.1193,0.1191,0.1196,0.1224,0.1224,0.1227,0.1255,0.1259,0.1268,0.1269,0.1256,0.128,0.1279,0.1323,0.1264,0.1325,0.1328,0.1331,0.1405,0.1415,0.1423,0,0,0,0,0,0.1165,0.1182,0.1194,0.12,0.1219,0.1225,0.1227,0.1241,0.1256,0.1269,0.1281,0.127,0.1302,0.128,0.1279,0.1325,0.1323,0.1327,0.1331,0.14,0.1413,0.1423,0,0,0,0,0,0,0.1162,0.1186,0.1199,0.1222,0.1234,0.1231,0.1248,0.1258,0.1277,0.1291,0.1281,0.1283,0.1325,0.1311,0.1288,0.1356,0.1316,0.132,0.1369,0.138,0.1389,0.141,0.1264,0,0,0,0,0,0.1173,0.1198,0.121,0.123,0.1241,0.1252,0.1262,0.1274,0.1284,0.1295,0.1307,0.1322,0.1336,0.1347,0.1355,0.1381,0.1381,0.1414,0.1424,0.1431,0.1449,0.1491,0.1506,0.1347,0.1347,0.1347,0,0,0.1177,0.1194,0.1209,0.1233,0.1246,0.126,0.1261,0.1286,0.1312,0.1292,0.1344,0.1354,0.1351,0.1389,0.1407,0.1385,0.1474,0.1437,0.1443,0.1457,0.1497,0.1513,0.1527,0.135,0.1349,0.1349,0,0,0.1184,0.1215,0.1236,0.1251,0.1281,0.1286,0.1302,0.1324,0.1354,0.1387,0.1395,0.1433,0.1446,0.1465,0.1469,0.1532,0.1523,0.1545,0.1607,0.1648,0.1661,0.1673,0.168,0.1692,0.1548,0.1548,0.1548,0,0.1191,0.1217,0.1241,0.1261,0.128,0.1302,0.1322,0.1349,0.1383,0.1418,0.1416,0.1483,0.1482,0.1537,0.1568,0.1555,0.1569,0.1562,0.166,0.1672,0.1683,0.1687,0.17,0.1553,0.1552,0.1552,0.1551,0,0.1203,0.1235,0.1248,0.1286,0.1308,0.133,0.1366,0.1408,0.1446,0.1478,0.1558,0.1569,0.1612,0.1625,0.1615,0.1705,0.1687,0.1668,0.1631,0.1704,0.1703,0.1715,0.1559,0.1557,0.1556,0.1555,0,0,0.1177,0.1247,0.1251,0.1279,0.1327,0.1341,0.1399,0.1454,0.1503,0.1564,0.1637,0.1686,0.1723,0.1733,0.1745,0.1787,0.1869,0.1775,0.1775,0.178,0.1952,0.1875,0.1879,0.1879,0.1881,0.1884,0.1915,0,0.1179,0.1225,0.126,0.1304,0.1327,0.1377,0.1427,0.1489,0.1543,0.1622,0.1686,0.1757,0.1756,0.1797,0.1844,0.1873,0.1906,0.1861,0.1883,0.1883,0.1805,0.1893,0.1892,0.1923,0.1926,0.1928,0.1929,0,0.1163,0.1204,0.1251,0.1326,0.1343,0.1379,0.1463,0.1514,0.1626,0.1678,0.1771,0.1828,0.1933,0.1908,0.2002,0.1982,0.1984,0.1988,0.1989,0.1902,0.1828,0.184,0.1949,0.1948,0.1946,0.1945,0.1944,0,0.1114,0.1188,0.1232,0.1255,0.1343,0.1389,0.1443,0.1539,0.1597,0.1735,0.179,0.1915,0.1983,0.2036,0.2083,0.2055,0.2165,0.2109,0.203,0.2023,0.2044,0.2031,0.2163,0.2163,0.2163,0.2163,0.2163,0,0.1082,0.1115,0.1221,0.1242,0.1303,0.1379,0.1454,0.1522,0.1638,0.1715,0.1831,0.1906,0.2026,0.2107,0.2123,0.2132,0.2198,0.2066,0.2043,0.2072,0.2062,0.2051,0.2037,0.2164,0.2164,0.2164,0.2164,0,0.1009,0.1079,0.113,0.1242,0.1279,0.1325,0.1448,0.1499,0.1616,0.1718,0.1779,0.1931,0.2044,0.2132,0.2217,0.2163,0.2187,0.2162,0.22,0.2174,0.1994,0.1985,0.2062,0.206,0.2058,0.2056,0.2055,0,0.0973,0.0997,0.1111,0.1146,0.1201,0.1287,0.1342,0.1473,0.1527,0.1718,0.1757,0.1927,0.2021,0.207,0.217,0.2208,0.2178,0.2154,0.2069,0.2023,0.1993,0.1986,0.1979,0.2052,0.2052,0.2051,0.2051,0,0.0906,0.0956,0.1003,0.1076,0.1142,0.1201,0.1295,0.1327,0.1487,0.1607,0.1714,0.1808,0.1926,0.2018,0.2078,0.2094,0.216,0.2134,0.2136,0.2055,0.2012,0.1983,0.1978,0.2045,0.2046,0.2046,0.2047,0,0.0852,0.0869,0.0941,0.0996,0.1065,0.1102,0.1164,0.125,0.1328,0.1537,0.1579,0.1761,0.1909,0.1959,0.2021,0.2048,0.1996,0.1903,0.1916,0.1923,0.1872,0.1797,0.1767,0,0,0,0,0,0.0798,0.0814,0.0857,0.0915,0.0976,0.1024,0.1125,0.1194,0.1352,0.1387,0.148,0.1597,0.1719,0.1813,0.1814,0.1955,0.1997,0.1946,0.1893,0.2011,0.2018,0.1976,0,0,0,0,0,0,0.0765,0.08,0.0826,0.0833,0.0861,0.0923,0.0987,0.1095,0.112,0.1291,0.1364,0.1501,0.1638,0.171,0.1785,0.1814,0.1747,0.2062,0.2058,0.2007,0.2014,0.2019,0.1978,0,0,0,0,0]},{"header":{"parameterUnit":"m.s-1","parameterCategory":2,"la1":30.2991,"la2":30.254,"lo1":-89.0895,"lo2":-89.0444,"dy":0.0017,"dx":0.0017,"nx":28,"ny":28,"refTime":"2024-06-06T03:00:00:Z","depth":"4","parameterNumber":3,"parameterNumberName":"V-component_of_CURRENTS"},"data":[0,0,0,0,0,0,0,0,0,0,0,0,0,0,0,0,0,0,0,0,0,0,0,0,0,0,0,0,0,0,0,0,0,0,0,0,0,0,0,0,0,0,0,0,0,0,0,0,0,0,0,0,0,0,0,0,0,0,0.0089,0.0089,0,0.004,0.0039,0.0038,-0.001,-0.0011,-0.0011,-0.0011,-0.0061,-0.0062,-0.0063,0,0,0,0,0,0,0,0,0,0,0,0,0,0.0084,0.0084,0.0089,0.0089,0.0088,0.004,0.0039,0.0038,-0.001,-0.0011,-0.0011,-0.0012,-0.0061,-0.0062,-0.0063,0,0,0,0,0,0,0,0,0,0,0,0,0,0.0063,0.0085,0.0089,0.006,0.0057,0.004,0.0039,0.0038,-0.001,-0.0011,-0.0011,-0.0012,-0.006,-0.0061,-0.0063,-0.0059,0,0,-0.0067,-0.0068,0,0,0,0,0,0,0,0,0.0065,0.0063,0.0065,0.0062,0.0059,0.0022,0.0019,0.0006,-0.001,0.0013,-0.0011,-0.0012,-0.0031,-0.0035,-0.0046,-0.0061,-0.0063,-0.0067,-0.0068,-0.0069,-0.0069,0,0,0,0,0,0,0,0.0066,0.0065,0.0067,0.0064,0.0061,0.003,0.0027,0.0016,-0.0007,0.0011,0.0008,0.0006,-0.0033,-0.0045,-0.0048,-0.0064,-0.0067,-0.0068,-0.0069,-0.007,-0.0057,-0.0056,0,0,0,0,0,0,0.0081,0.0067,0.0069,0.0066,0.0063,0.0031,0.0027,0.0033,-0.0007,-0.0013,0.0007,0.0004,-0.0042,-0.0046,-0.0049,-0.0013,-0.0069,-0.007,-0.0071,-0.0058,-0.0057,-0.0056,0,0,0,0,0,0,0.0081,0.0082,0.0071,0.0066,0.0063,0.0032,0.0039,0.0032,0.0022,-0.0009,-0.0016,0.0004,-0.0043,-0.0047,-0.0051,-0.0016,-0.0071,-0.0072,-0.006,-0.0058,-0.0056,0.0038,0,0,0,0,0,0,0.0081,0.0083,0.009,0.0068,0.0064,0.0074,0.0039,0.0032,0.0023,0.0019,-0.0014,-0.0019,-0.0043,-0.0049,-0.0053,-0.0019,-0.0073,-0.0061,-0.0059,-0.0057,0.0034,0.0043,0.0051,0,0,0,0,0,0.0081,0.0103,0.0091,0.0091,0.0076,0.0075,0.0071,0.0044,0.0024,0.003,0.0005,-0.0018,-0.0037,-0.0049,-0.0054,-0.002,-0.0062,-0.006,-0.0057,0.003,0.0041,0.0051,0,0,0,0,0,0,0.0105,0.01,0.0086,0.0104,0.0095,0.0068,0.0071,0.0051,0.0034,0.0029,-0.0007,-0.0014,-0.0002,-0.0027,-0.0039,-0.0011,-0.0052,-0.005,0.0016,0.0026,0.0035,0.0041,-0.0074,0,0,0,0,0,0.0115,0.0129,0.0114,0.0129,0.0126,0.0098,0.0092,0.0077,0.0059,0.005,0.0029,0.0009,0.0005,0.0003,-0.001,0.0004,-0.0038,0.0023,0.0032,0.004,0.0041,0.0009,0.0014,-0.0047,-0.0047,-0.0047,0,0,0.0128,0.0126,0.0134,0.0134,0.0121,0.0137,0.0093,0.0094,0.0111,0.005,0.0064,0.0038,0.0014,0.0031,0.0035,0.0016,0.0035,0.0043,0.005,0.0047,0.0012,0.0018,0.0023,-0.0045,-0.0046,-0.0046,0,0,0.0168,0.0161,0.0186,0.0186,0.0178,0.0166,0.0171,0.0152,0.0146,0.0152,0.0119,0.011,0.0099,0.0092,0.0086,0.0135,0.0081,0.0136,0.0189,0.0158,0.0163,0.0166,0.012,0.0118,0.0144,0.0144,0.0144,0,0.0183,0.0213,0.0193,0.0217,0.0225,0.0187,0.0216,0.0212,0.0195,0.0198,0.0171,0.0152,0.013,0.0154,0.017,0.0156,0.012,0.0154,0.0169,0.0172,0.0174,0.0125,0.0122,0.0149,0.0148,0.0148,0.0147,0,0.0241,0.0264,0.028,0.0301,0.0307,0.0325,0.0319,0.0328,0.0309,0.0294,0.0301,0.0263,0.0249,0.0249,0.0224,0.0241,0.0204,0.0182,0.0143,0.0186,0.0132,0.0127,0.0156,0.0154,0.0153,0.0151,0,0,0.0275,0.0314,0.0319,0.0341,0.0352,0.0364,0.0402,0.0418,0.0436,0.0414,0.0428,0.0416,0.0374,0.0364,0.0332,0.0307,0.0288,0.0257,0.0253,0.0211,0.0205,0.0146,0.0134,0.0268,0.0268,0.0268,0.0161,0,0.0323,0.0386,0.0394,0.0454,0.0482,0.0475,0.0513,0.0522,0.051,0.0513,0.0476,0.0471,0.0427,0.0415,0.0388,0.031,0.028,0.0318,0.0169,0.0164,0.0107,0.0129,0.0267,0.0158,0.0156,0.0156,0.0155,0,0.0375,0.041,0.0478,0.0528,0.054,0.0574,0.0612,0.0641,0.0641,0.0628,0.061,0.0563,0.0534,0.0481,0.0375,0.0399,0.0313,0.0247,0.0241,0.0148,0.0097,0.0105,0.0146,0.0146,0.0147,0.0148,0.0148,0,0.04,0.0468,0.0523,0.0541,0.0594,0.0629,0.0657,0.0674,0.0697,0.0695,0.0686,0.064,0.0602,0.0507,0.0363,0.0369,0.0222,0.0212,0.0079,0.0073,0.0115,0.0112,0.0136,0.0136,0.0136,0.0137,0.0137,0,0.0442,0.0487,0.0541,0.0572,0.064,0.0665,0.0727,0.0746,0.0765,0.0783,0.0741,0.0721,0.0604,0.05,0.038,0.0204,0.0231,0.0085,0.0044,0.0157,0.016,0.0111,0.0109,0.0133,0.0134,0.0134,0.0135,0,0.0455,0.0494,0.0559,0.0627,0.0653,0.0699,0.077,0.0805,0.0822,0.084,0.0839,0.0772,0.0635,0.0493,0.0318,0.0214,0.0061,-0.0009,0.0109,0.0077,-0.0069,-0.0065,-0.0153,-0.0156,-0.0159,-0.0161,-0.0162,0,0.0465,0.0502,0.0587,0.0625,0.066,0.0733,0.078,0.0829,0.0858,0.0859,0.0858,0.0748,0.0676,0.0391,0.0243,0.0006,-0.003,-0.0105,-0.0069,-0.0067,-0.0098,-0.0089,-0.0081,-0.0166,-0.0167,-0.0168,-0.0168,0,0.0479,0.051,0.0558,0.0634,0.0695,0.0768,0.0836,0.086,0.0905,0.0915,0.0856,0.0724,0.0558,0.0365,0.017,0.0005,-0.0047,-0.0131,-0.0126,-0.0093,-0.0084,-0.011,-0.0099,-0.0177,-0.0176,-0.0175,-0.0174,0,0.0478,0.0508,0.0568,0.0634,0.0711,0.0778,0.0822,0.0852,0.0884,0.0884,0.0855,0.0701,0.0623,0.036,0.0184,0.001,-0.0025,-0.0065,-0.0064,-0.0056,0.0002,0.0029,-0.0065,0,0,0,0,0,0.0472,0.0503,0.0562,0.0634,0.0709,0.0758,0.0845,0.0882,0.092,0.0876,0.087,0.0716,0.0457,0.0354,0.0168,0.0129,-0.0061,-0.0096,-0.0107,-0.0224,-0.0214,-0.0168,0,0,0,0,0,0,0.0468,0.0519,0.0551,0.062,0.0667,0.0752,0.0812,0.0843,0.0824,0.0836,0.0702,0.0654,0.0403,0.055,0.0155,0.0105,0.007,-0.0208,-0.0212,-0.023,-0.0221,-0.0213,-0.0162,0,0,0,0,0]}]]